Regional Weather Roundup
Issued by NWS Upton, NY

Current Version | Previous Version | Text Only | Print | Product List | Glossary Off
Versions: 1 2 3 4 5 6 7 8 9 10 11 12 13 14 15 16 17 18 19 20 21 22 23 24 25 26 27 28 29 30 31 32 33 34 35 36 37 38 39 40 41 42 43 44 45 46 47 48 49 50
000 ASUS41 KOKX 290008 RWROKX REGIONAL WEATHER ROUNDUP NATIONAL WEATHER SERVICE NEW YORK NY 800 PM EDT THU MAY 28 2015 NOTE: "FAIR" INDICATES FEW OR NO CLOUDS BELOW 12,000 FEET WITH NO SIGNIFICANT WEATHER AND/OR OBSTRUCTIONS TO VISIBILITY. NYZ071-072-176-178-NJZ106-104-290100- NEW YORK CITY METRO AREA CITY SKY/WX TMP DP RH WIND PRES REMARKS CENTRAL PARK CLOUDY 85 53 33 VRB3 30.17R LAGUARDIA APRT CLOUDY 78 63 59 NE12 30.14R KENNEDY INTL CLOUDY 71 60 68 CALM 30.15S NEWARK/LIBERTY MOCLDY 85 53 33 NW16 30.14R BRNX BOT. GARD N/A 73 64 73 N2 30.16S TETERBORO MOCLDY 83 55 38 N9 30.13R $$ NYZ177-179-078>081-290100- LONG ISLAND NEW YORK CITY SKY/WX TMP DP RH WIND PRES REMARKS FARMINGDALE CLOUDY 67 63 87 CALM 30.16R ISLIP CLOUDY 68 62 81 CALM 30.15S SHIRLEY CLOUDY 68 63 84 W5 30.17R WESTHAMPTON CLOUDY 65 62 90 SW8 30.18R MONTAUK POINT N/A 64 60 87 SW7 30.19R $$ NYZ052-065-067-290100- HUDSON VALLEY CITY SKY/WX TMP DP RH WIND PRES REMARKS WHITE PLAINS MOCLDY 73 67 81 S3 30.16R NEWBURGH PTCLDY 75 59 57 W12 30.19R MONTGOMERY PTCLDY 76 55 48 NW9G17 30.18R POUGHKEEPSIE CLEAR 79 56 45 N8 30.16R ALBANY MOCLDY 70 53 54 NW8 30.23R $$ NJZ001-105-106-008-010-013-015-019>022-104-290100- NEW JERSEY CITY SKY/WX TMP DP RH WIND PRES REMARKS NEWARK/LIBERTY MOCLDY 85 53 33 NW16 30.14R TETERBORO MOCLDY 83 55 38 N9 30.13R CALDWELL MOCLDY 81 51 35 NW8 30.16R MORRISTOWN MOCLDY 82 55 39 N7G21 30.17R SOMERVILLE MOCLDY 82 54 37 N6 30.14R SUSSEX PTCLDY 76 52 43 NW3 30.22R ANDOVER N/A 76 50 40 N7 30.20R TRENTON MOCLDY 83 61 47 CALM 30.15R MILLVILLE CLOUDY 75 70 84 SE3 30.17R ATLANTIC CITY CLOUDY 73 65 75 S7 30.17S WRIGHTSTOWN CLOUDY 76 69 78 SW2 30.14R TOMS RIVER CLOUDY N/A N/A N/A SW5 30.16R BELMAR CLOUDY 75 63 64 SW8 30.16S $$ PAZ047>061-062-071-290100- EASTERN PENNSYLVANIA CITY SKY/WX TMP DP RH WIND PRES REMARKS PHILADELPHIA MOCLDY 82 67 60 SW6 30.16R ALLENTOWN MOCLDY 80 54 40 N9 30.19R SCRANTON CLEAR 75 50 41 N9 30.24R $$ CTZ002-004>006-009-010-012-RIZ004-006-007-MAZ004-011-015-290100- SOUTHERN NEW ENGLAND IN CT CITY SKY/WX TMP DP RH WIND PRES REMARKS BRADLEY INTL MOCLDY 75 59 57 N13 30.15R HARTFORD CLOUDY 76 66 71 S6 30.13R DANBURY MOCLDY 73 66 78 W6 30.17R WTRBRY/OXFORD PTCLDY 72 64 78 SW5 30.18R BRIDGEPORT CLOUDY 71 63 75 SW8 30.14R MERIDEN CLOUDY 74 66 76 S3 30.14S NEW HAVEN CLOUDY 70 62 76 SW5 30.14R CHESTER FAIR 72 66 83 SW6 30.16S GROTON CLOUDY 63 59 87 SW5 30.15S WILLIMANTIC CLOUDY 75 66 73 SW5 30.15R IN RI CITY SKY/WX TMP DP RH WIND PRES REMARKS PROVIDENCE CLOUDY 69 62 78 S10 30.14S BLOCK ISLAND CLOUDY 61 55 82 SW16 30.19R WESTERLY CLOUDY 63 59 87 CALM 30.17S IN MA CITY SKY/WX TMP DP RH WIND PRES REMARKS BOSTON CLOUDY 77 63 61 SW12 30.11R WORCESTER MOCLDY 70 61 73 W13 30.16R WESTFIELD PTCLDY 74 54 49 NW8 30.17R PROVINCETOWN MOCLDY 61 57 88 SW16G23 30.13S NANTUCKET MOCLDY 60 56 86 SW8 30.19S $$ ANZ330-335-338-340-345-350-353-355-290100- COASTAL MARINE OBSERVATIONS STATION/POSITION TIME SKY/WX TEMP WIND PRES VSBY WAVE AIR SEA DIR/SP/G HT/PER (UTC) (F) (DEG/KT/KT) (MB) (MI) (FT/S) NY HARB ENTRANCE 2350 63 59 190/ 14/ 17 1020.5 3/ 6 4S FIRE IS 2303 58 N/A 4/ 6 20S FIRE ISLAND 2350 62 58 210/ 16/ 17 1021.3 4/ 6 GREAT SOUTH BAY 2300 65 69 240/ 8/ 12 N/A 23SW MTP 2350 59 54 220/ 12/ 14 1021.1 4/ 6 HUDSON CANYON NOT AVBL KINGS POINT 2300 74 56 180/ 8/ 10 1019.5 CENTRAL LI SOUND 2300 66 57 230/ 10/ 12 N/A EASTERN LI SOUND 2300 60 200/ 8/ 10 N/A ROBBINS REEF 2300 77 180/ 9/ 11 1019.1 $$ >>>>>>>>>>>>>>>>>>>>>>>>>>>> KEY <<<<<<<<<<<<<<<<<<<<<<<<<<< > < > SKY/WX - SKY CONDITION/PRESENT WEATHER < > TMP - TEMPERATURE IN FAHRENHEIT < > DP - DEWPOINT IN FAHRENHEIT < > RH - RELATIVE HUMIDITY IN PERCENT < > WIND - DIRECTION AND SPEED IN MPH < > PRES - MEAN SEA LEVEL PRESSURE IN INCHES OF HG < > WCI - WIND CHILL INDEX < > VSB - VISIBILITY IN MILES < > HX - HEAT INDEX < > TC - TEMPERATURE IN CELSIUS < > VRB - VARIABLE WIND DIRECTION < > < >>>>>>>>>>>>>>>>>>>>>>>>>>>> KEY <<<<<<<<<<<<<<<<<<<<<<<<<<<

USA.gov is the U.S. government's official web portal to all federal, state and local government web resources and services.